Location: Ch�teau-Arnoux
(44.0814°N, 6.0027°E)
Time: 10:39:38
(UTC+00:00)

Meteor 1-31 Rocket - Pass Details

Date: 15 November 2019
Orbit: 522 x 546 km, 97.6° (Epoch: 13 December)

Event Time Altitude Azimuth Distance (km) Brightness Sun altitude
Rises 04:13:42 0° 13° (NNE) 2,674 6.5 -24.5°
Reaches altitude 10° 04:15:49 10° 14° (NNE) 1,783 5.5 -24.2°
Enters shadow 04:18:34 45° 18° (NNE) 728 3.4 -23.7°
